CW5086 Greenlawn NY US current weather conditions

sailwx.info

Wind from 346 at 0 knots gusting 7

Air temperature 3.9° C
Dewpoint -5.8° C

Last reported at 2020-Jan-28 21:02 UTC.
Time now 2020-Jan-28 22:06 UTC

Location: N 40°52' W 073°21'.
View on Google Maps.

See reports from other nearby stations

  
Tides and Currents Weather Stations Pressure Air Temp Water Temp Dewpoint Dewpoint Depression Visibility Wind Speed Wind Dir Waves Ship Positions
date/time (UTC)wind fromknots sea level pressurealtimeterstation pressurevisibilityair tempwater tempwave heightnotes
2020-Jan-28 21:02 346 0 gusting 7 3.9
2020-Jan-28 20:52 320 0 gusting 3 3.9
2020-Jan-28 20:42 355 0 gusting 5 3.9
2020-Jan-28 20:32 304 2 gusting 5 3.9
2020-Jan-28 20:22 344 1 gusting 6 3.9
2020-Jan-28 20:12 005 2 gusting 4 3.9
2020-Jan-28 20:02 284 1 gusting 5 3.9
2020-Jan-28 19:52 360 1 gusting 4 3.9
2020-Jan-28 19:42 011 2 gusting 6 3.9
2020-Jan-28 19:32 020 2 gusting 6 3.9
2020-Jan-28 19:22 040 4 gusting 11 3.9
2020-Jan-28 19:12 296 3 gusting 6 4.4
2020-Jan-28 19:02 355 0 gusting 4 4.4
2020-Jan-28 18:52 341 1 gusting 6 4.4
2020-Jan-28 18:42 273 1 gusting 4 4.4
2020-Jan-28 18:32 336 1 gusting 2 4.4
2020-Jan-28 18:22 270 1 gusting 7 4.4
2020-Jan-28 18:12 340 1 gusting 5 4.4
2020-Jan-28 18:02 336 1 gusting 7 4.4
2020-Jan-28 17:52 360 1 gusting 5 4.4
2020-Jan-28 17:42 005 1 gusting 9 4.4
2020-Jan-28 17:32 355 2 gusting 6 4.4
2020-Jan-28 17:22 355 6 gusting 8 4.4
2020-Jan-28 17:12 027 1 gusting 6 4.4
2020-Jan-28 17:02 355 0 gusting 6 4.4
2020-Jan-28 16:52 042 2 gusting 6 4.4
2020-Jan-28 16:42 013 0 gusting 5 4.4
2020-Jan-28 16:32 342 3 gusting 7 4.4
2020-Jan-28 16:22 339 1 gusting 7 4.4
2020-Jan-28 16:12 355 0 gusting 7 4.4
2020-Jan-28 16:02 360 2 gusting 6 5.0
2020-Jan-28 15:52 015 2 gusting 7 5.0
2020-Jan-28 15:42 325 1 gusting 8 4.4
2020-Jan-28 15:32 009 1 gusting 5 4.4
2020-Jan-28 15:22 334 2 gusting 9 4.4
2020-Jan-28 15:12 015 1 gusting 8 4.4
2020-Jan-28 15:02 305 1 gusting 4 3.9
2020-Jan-28 14:52 305 2 gusting 6 3.9
2020-Jan-28 14:42 023 2 gusting 7 3.3
2020-Jan-28 14:32 279 4 gusting 6 3.3
2020-Jan-28 14:22 342 0 gusting 8 3.3
2020-Jan-28 14:12 332 0 gusting 4 3.3
2020-Jan-28 14:02 323 1 gusting 8 3.3
2020-Jan-28 13:52 281 0 gusting 7 2.8
2020-Jan-28 13:42 360 0 gusting 8 2.8
2020-Jan-28 13:32 017 0 gusting 5 2.8
2020-Jan-28 13:22 315 0 gusting 7 2.8
2020-Jan-28 13:12 068 4 gusting 4 2.8
2020-Jan-28 13:02 309 2.2
2020-Jan-28 12:52 292 1 gusting 4 2.2
2020-Jan-28 12:42 281 0 gusting 5 2.2
2020-Jan-28 12:32 022 5 gusting 5 2.2
2020-Jan-28 12:22 284 3 gusting 6 2.2
2020-Jan-28 12:12 286 2.2
2020-Jan-28 12:02 263 0 gusting 5 2.2
2020-Jan-28 11:52 310 2.2
2020-Jan-28 11:42 296 0 gusting 6 2.2
2020-Jan-28 11:32 321 6 gusting 6 2.2
2020-Jan-28 11:22 313 1 gusting 4 2.2
2020-Jan-28 11:12 017 2 gusting 5 2.2
2020-Jan-28 11:02 275 1 gusting 6 2.2
2020-Jan-28 10:52 250 0 gusting 4 2.2
2020-Jan-28 10:42 275 0 gusting 5 2.2
2020-Jan-28 10:32 333 1 gusting 4 2.2
2020-Jan-28 10:22 313 0 gusting 5 2.2
2020-Jan-28 10:12 336 0 gusting 6 2.2
2020-Jan-28 10:02 236 0 gusting 4 2.8
2020-Jan-28 09:52 279 0 gusting 5 2.8
2020-Jan-28 09:42 327 1 gusting 3 2.8
2020-Jan-28 09:32 009 0 gusting 5 2.8
2020-Jan-28 09:22 275 0 gusting 6 2.8
2020-Jan-28 09:12 265 1 gusting 6 2.8
2020-Jan-28 09:02 293 2 gusting 6 2.8
2020-Jan-28 08:52 252 2 gusting 3 2.8
2020-Jan-28 08:42 275 0 gusting 5 2.8
2020-Jan-28 08:32 259 2 gusting 8 2.8
2020-Jan-28 08:22 348 0 gusting 8 2.8
2020-Jan-28 08:12 030 1 gusting 6 2.8
2020-Jan-28 08:02 284 3 gusting 6 2.8
2020-Jan-28 07:52 290 1 gusting 4 3.3
2020-Jan-28 07:42 286 0 gusting 5 3.3
2020-Jan-28 07:32 298 1 gusting 5 3.3
2020-Jan-28 07:22 244 5 gusting 6 3.3
2020-Jan-28 07:12 292 3.3
2020-Jan-28 07:02 288 1 gusting 6 3.3
2020-Jan-28 06:52 266 2 gusting 5 3.3
2020-Jan-28 06:42 277 2 gusting 6 3.3
2020-Jan-28 06:32 302 2 gusting 6 3.3
2020-Jan-28 06:22 319 1 gusting 6 3.3
2020-Jan-28 06:12 296 3 gusting 5 3.3
2020-Jan-28 06:02 273 0 gusting 6 3.3
2020-Jan-28 05:52 289 6 gusting 6 3.3
2020-Jan-28 05:42 281 0 gusting 6 3.3
2020-Jan-28 05:32 323 0 gusting 6 3.3
2020-Jan-28 05:22 292 2 gusting 6 3.3
2020-Jan-28 05:12 240 3 gusting 6 3.3
2020-Jan-28 05:02 286 2 gusting 6 3.3
2020-Jan-28 04:52 288 0 gusting 8 3.9
2020-Jan-28 04:42 327 4 gusting 7 3.9
2020-Jan-28 04:32 306 1 gusting 8 3.9
2020-Jan-28 04:22 293 0 gusting 6 3.9
2020-Jan-28 04:12 281 3 gusting 6 3.9
2020-Jan-28 04:02 285 1 gusting 8 3.9
2020-Jan-28 03:52 319 1 gusting 5 3.9
2020-Jan-28 03:42 312 1 gusting 7 3.9
2020-Jan-28 03:32 244 2 gusting 3 3.9
2020-Jan-28 03:22 312 0 gusting 8 3.9
2020-Jan-28 03:12 299 1 gusting 5 3.9
2020-Jan-28 03:02 294 1 gusting 5 3.9
2020-Jan-28 02:52 268 2 gusting 8 3.9
2020-Jan-28 02:42 279 0 gusting 8 3.9
2020-Jan-28 02:32 275 1 gusting 6 4.4
2020-Jan-28 02:22 284 4 gusting 8 4.4
2020-Jan-28 02:12 300 0 gusting 8 4.4
2020-Jan-28 02:02 272 2 gusting 10 4.4
2020-Jan-28 01:52 281 3 gusting 7 4.4
2020-Jan-28 01:42 296 0 gusting 7 4.4
2020-Jan-28 01:32 317 0 gusting 9 4.4
2020-Jan-28 01:22 286 1 gusting 6 4.4
2020-Jan-28 01:12 263 1 gusting 6 4.4
2020-Jan-28 01:02 298 0 gusting 7 4.4
2020-Jan-28 00:52 276 1 gusting 6 4.4
2020-Jan-28 00:42 336 1 gusting 5 4.4
2020-Jan-28 00:32 360 0 gusting 8 4.4
2020-Jan-28 00:22 295 0 gusting 6 4.4
2020-Jan-28 00:12 302 2 gusting 4 4.4
2020-Jan-28 00:02 329 0 gusting 4 4.4
2020-Jan-27 23:52 289 1 gusting 6 4.4
2020-Jan-27 23:42 287 1 gusting 7 4.4
2020-Jan-27 23:32 284 1 gusting 6 4.4
2020-Jan-27 23:22 313 0 gusting 7 5.0
2020-Jan-27 23:12 290 2 gusting 5 5.0
2020-Jan-27 23:02 253 1 gusting 5 5.0
2020-Jan-27 22:52 306 1 gusting 6 5.0
2020-Jan-27 22:42 288 1 gusting 8 5.0
2020-Jan-27 22:32 350 0 gusting 7 5.0
2020-Jan-27 22:22 266 0 gusting 9 5.0
2020-Jan-27 22:12 265 3 gusting 5 5.0
2020-Jan-27 22:02 296 1 gusting 7 5.0
2020-Jan-27 21:52 292 1 gusting 6 5.0
2020-Jan-27 21:42 294 2 gusting 7 5.0
2020-Jan-27 21:32 276 2 gusting 4 5.0
2020-Jan-27 21:22 288 1 gusting 5 5.6
2020-Jan-27 21:12 300 2 gusting 5 5.6
2020-Jan-27 21:02 273 1 gusting 4 5.6
2020-Jan-27 20:52 292 0 gusting 7 5.6
2020-Jan-27 20:42 284 2 gusting 6 5.6
2020-Jan-27 20:32 286 1 gusting 7 5.6
2020-Jan-27 20:22 271 2 gusting 10 5.6
2020-Jan-27 20:12 292 1 gusting 4 5.6
2020-Jan-27 20:02 324 0 gusting 7 5.6
2020-Jan-27 19:52 290 2 gusting 10 5.6
2020-Jan-27 19:42 271 0 gusting 6 5.0
2020-Jan-27 19:32 294 1 gusting 5 5.0
2020-Jan-27 19:22 281 2 gusting 7 5.0
2020-Jan-27 19:12 283 3 gusting 9 5.0
2020-Jan-27 19:02 264 4 gusting 10 5.0
2020-Jan-27 18:52 294 2 gusting 6 5.0
2020-Jan-27 18:42 286 1 gusting 10 5.0
2020-Jan-27 18:32 278 1 gusting 6 5.0
2020-Jan-27 18:22 338 3 gusting 10 5.0
2020-Jan-27 18:12 274 2 gusting 10 5.6
2020-Jan-27 18:02 287 2 gusting 8 5.6
2020-Jan-27 17:52 251 0 gusting 9 5.6
2020-Jan-27 17:42 273 0 gusting 9 5.6
2020-Jan-27 17:32 292 5 gusting 10 6.1
2020-Jan-27 17:22 273 4 gusting 9 5.6
2020-Jan-27 17:12 306 3 gusting 11 5.6
2020-Jan-27 17:02 341 2 gusting 10 5.6
2020-Jan-27 16:52 284 4 gusting 11 5.6
2020-Jan-27 16:42 273 0 gusting 10 5.6
2020-Jan-27 16:32 309 1 gusting 13 6.1
2020-Jan-27 16:22 296 1 gusting 15 6.7
2020-Jan-27 16:12 309 3 gusting 11 6.7
2020-Jan-27 16:02 291 3 gusting 9 6.1
2020-Jan-27 15:52 308 1 gusting 13 5.6
2020-Jan-27 15:42 270 6 gusting 13 6.1
2020-Jan-27 15:32 270 7 gusting 12 5.6
2020-Jan-27 15:22 259 8 gusting 13 5.0
2020-Jan-27 15:02 262 2 gusting 8 5.0
2020-Jan-27 14:52 273 1 gusting 8 5.0
2020-Jan-27 14:42 263 2 gusting 11 5.0
2020-Jan-27 14:32 260 5 gusting 13 5.0
2020-Jan-27 14:22 269 6 gusting 9 5.0
2020-Jan-27 14:12 302 2 gusting 9 3.3
2020-Jan-27 14:02 269 4 gusting 11 2.8
2020-Jan-27 13:52 315 3 gusting 8 3.3
2020-Jan-27 13:42 284 2 gusting 8 3.3
2020-Jan-27 13:32 229 5 gusting 7 3.3
2020-Jan-27 13:22 235 6 gusting 9 2.8
2020-Jan-27 13:12 270 4 gusting 8 2.2
2020-Jan-27 13:02 242 7 gusting 7 2.2
2020-Jan-27 12:52 272 3 gusting 8 2.2
2020-Jan-27 12:42 282 2 gusting 7 2.2
2020-Jan-27 12:32 268 1 gusting 8 2.2
2020-Jan-27 12:22 243 3 gusting 10 2.2
2020-Jan-27 12:12 278 1 gusting 7 2.2
2020-Jan-27 12:02 277 7 gusting 7 1.7
2020-Jan-27 11:52 259 1 gusting 10 1.7
2020-Jan-27 11:42 252 2 gusting 6 1.7
2020-Jan-27 11:32 266 2 gusting 6 1.7
2020-Jan-27 11:22 245 1 gusting 7 1.7
2020-Jan-27 11:12 264 3 gusting 7 1.7
2020-Jan-27 11:02 273 0 gusting 9 1.7
2020-Jan-27 10:52 266 1 gusting 6 1.7
2020-Jan-27 10:42 267 1 gusting 4 1.7
2020-Jan-27 10:32 279 1 gusting 4 1.7
2020-Jan-27 10:22 275 1 gusting 5 1.7
2020-Jan-27 10:12 256 3 gusting 5 1.7
2020-Jan-27 10:02 261 3 gusting 5 1.7
2020-Jan-27 09:52 268 1 gusting 4 1.7
2020-Jan-27 09:42 271 3 gusting 5 1.7
2020-Jan-27 09:32 243 4 gusting 5 1.1
2020-Jan-27 09:22 267 2 gusting 4 1.1
2020-Jan-27 09:12 259 3 gusting 7 1.1
2020-Jan-27 09:02 255 0 gusting 5 1.1
2020-Jan-27 08:52 262 2 gusting 6 1.1
2020-Jan-27 08:42 259 2 gusting 5 1.1
2020-Jan-27 08:32 263 1 gusting 6 1.1
2020-Jan-27 08:22 263 1 gusting 7 1.1
2020-Jan-27 08:12 261 6 gusting 6 1.1
2020-Jan-27 08:02 250 4 gusting 7 1.1
2020-Jan-27 07:52 240 3 gusting 6 0.6
2020-Jan-27 07:42 256 1 gusting 3 0.6
2020-Jan-27 07:32 256 1 gusting 6 0.6
2020-Jan-27 07:22 271 2 gusting 5 0.6
2020-Jan-27 07:12 277 1 gusting 4 0.6
2020-Jan-27 07:02 281 1 gusting 5 0.6
2020-Jan-27 06:52 269 2 gusting 7 0.6
2020-Jan-27 06:42 273 2 gusting 4 1.1
2020-Jan-27 06:32 270 0 gusting 5 1.1
2020-Jan-27 06:22 263 2 gusting 5 0.6
2020-Jan-27 06:12 254 0 gusting 4 0.6
2020-Jan-27 06:02 250 1 gusting 4 1.1
2020-Jan-27 05:52 248 2 gusting 5 1.7
2020-Jan-27 05:42 277 4 gusting 7 1.7
2020-Jan-27 05:32 267 3 gusting 5 1.1
2020-Jan-27 05:22 275 0 gusting 5 1.1
2020-Jan-27 05:12 267 2 gusting 5 1.7
2020-Jan-27 05:02 259 3 gusting 6 1.7
2020-Jan-27 04:52 236 2 gusting 8 1.7
2020-Jan-27 04:42 265 1 gusting 6 1.7
2020-Jan-27 04:32 256 3 gusting 7 2.2
2020-Jan-27 04:22 273 4 gusting 5 2.2
2020-Jan-27 04:12 259 4 gusting 7 2.2
2020-Jan-27 04:02 259 3 gusting 6 2.2
2020-Jan-27 03:52 261 2 gusting 7 2.2
2020-Jan-27 03:42 289 1 gusting 5 2.8
2020-Jan-27 03:32 277 4 gusting 10 2.8
2020-Jan-27 03:22 275 2 gusting 9 2.8
2020-Jan-27 03:12 259 1 gusting 7 2.8
2020-Jan-27 03:02 291 3 gusting 7 3.3
2020-Jan-27 02:52 265 3 gusting 11 3.3
2020-Jan-27 02:42 296 2 gusting 8 3.3
2020-Jan-27 02:32 269 3 gusting 10 3.9
2020-Jan-27 02:22 300 2 gusting 8 3.9
2020-Jan-27 02:12 292 2 gusting 9 4.4
2020-Jan-27 02:02 275 1 gusting 9 4.4
2020-Jan-27 01:52 271 2 gusting 11 5.0
2020-Jan-27 01:42 290 2 gusting 8 5.0
2020-Jan-27 01:32 289 1 gusting 9 5.0
2020-Jan-27 01:22 290 4 gusting 12 5.0
2020-Jan-27 01:12 307 1 gusting 7 5.0
2020-Jan-27 01:02 263 5 gusting 9 5.0
2020-Jan-27 00:52 270 2 gusting 9 5.0
2020-Jan-27 00:42 256 9 gusting 12 5.0
2020-Jan-27 00:32 274 4 gusting 7 5.0
2020-Jan-27 00:22 264 1 gusting 6 5.0
2020-Jan-27 00:12 295 1 gusting 10 5.0
2020-Jan-27 00:02 260 1 gusting 11 5.0
2020-Jan-26 23:52 287 3 gusting 5 5.6
2020-Jan-26 23:42 277 1 gusting 4 5.0
2020-Jan-26 23:32 282 1 gusting 6 5.0
2020-Jan-26 23:22 257 0 gusting 5 5.0
2020-Jan-26 23:12 275 1 gusting 6 5.0
2020-Jan-26 23:02 275 1 gusting 3 5.0
2020-Jan-26 22:52 273 2 gusting 5 5.0
2020-Jan-26 22:42 269 1 gusting 4 5.0
2020-Jan-26 22:32 244 3 gusting 4 5.6
2020-Jan-26 22:22 302 2 gusting 7 5.6
2020-Jan-26 22:12 311 1 gusting 3 5.6
2020-Jan-26 22:02 282 0 gusting 6 5.6